Emporia, VA

11:26 AM EDT on June 26, 2017 (GMT -0400)
Emporia-Greensville Regional

Weather History for KEMV - October, 2013

Change the Weather History Date:

Wednesday, October 9, 2013

  Actual Average Record
Temperature  
Mean Temperature 56 °F -  
Max Temperature 57 °F 72 °F 96 °F (2007)
Min Temperature 55 °F 46 °F 28 °F (1988)
Degree Days  
Heating Degree Days 9    
Growing Degree Days 6 (Base 50)    
Moisture  
Dew Point 53 °F    
Average Humidity 93    
Maximum Humidity 100    
Minimum Humidity 82    
Precipitation  
Precipitation 0.59 in - - ()
Sea Level Pressure  
Sea Level Pressure 30.15 in    
Wind  
Wind Speed 10 mph (NNW)    
Max Wind Speed 16 mph    
Max Gust Speed 24 mph    
Visibility 8 miles    
Events Rain    
Averages and records for this station are not official NWS values.
T = Trace of Precipitation, MM = Missing Value Source: NWS Daily Summary

Daily Weather History Graph

Daily Weather History Graph

Search for Another Location

Airport or City:

Trip Planner

Search our weather history database for the weather conditions in past years. The results will help you decide how hot, cold, wet, or windy it might be!

Date:

Astronomy

Oct. 09, 2013 Rise Set
Actual Time 7:12 AM EDT 6:41 PM EDT
Civil Twilight 6:46 AM EDT 7:07 PM EDT
Nautical Twilight 6:16 AM EDT 7:37 PM EDT
Astronomical Twilight 5:46 AM EDT 8:07 PM EDT
Moon 11:59 AM EDT (10/9) 10:20 PM EDT (10/9)
Length of Visible Light 12h 21m
Length of Day
11h 29m
Waxing Crescent, 25% of the Moon is Illuminated
Oct 9
Waxing Crescent
Oct 11
First Quarter
Oct 18
Full
Oct 26
Last Quarter
Nov 3
New

Hourly Weather History & Observations

Time (EDT) Temp. Dew Point Humidity Pressure Visibility Wind Dir Wind Speed Gust Speed Precip Events Conditions
12:15 AM 55.4 °F 55.4 °F 100% 30.21 in 10.0 mi NNW 9.2 mph - N/A Rain Light Rain
12:35 AM 55.4 °F 55.4 °F 100% 30.21 in 10.0 mi NNW 8.1 mph - N/A Rain Light Rain
12:55 AM 55.4 °F 55.4 °F 100% 30.22 in 10.0 mi NNW 4.6 mph - N/A Rain Light Rain
1:15 AM 55.4 °F 55.4 °F 100% 30.22 in 10.0 mi NNW 5.8 mph - N/A   Overcast
1:35 AM 55.4 °F 55.4 °F 100% 30.21 in 10.0 mi NNW 6.9 mph - N/A Rain Light Rain
1:55 AM 55.4 °F 55.4 °F 100% 30.20 in 10.0 mi NNW 6.9 mph - N/A Rain Light Rain
2:15 AM 55.4 °F 53.6 °F 94% 30.21 in 10.0 mi NNW 6.9 mph - N/A   Mostly Cloudy
2:35 AM 55.4 °F 53.6 °F 94% 30.20 in 10.0 mi NNW 5.8 mph - N/A Rain Light Rain
2:55 AM 55.4 °F 51.8 °F 88% 30.18 in 10.0 mi NNW 9.2 mph - N/A   Mostly Cloudy
3:15 AM 55.4 °F 51.8 °F 88% 30.15 in 10.0 mi NNW 8.1 mph 16.1 mph N/A   Scattered Clouds
3:35 AM 55.4 °F 51.8 °F 88% 30.17 in 10.0 mi NNW 8.1 mph 16.1 mph N/A   Light Drizzle
3:55 AM 55.4 °F 51.8 °F 88% 30.17 in 10.0 mi NNW 8.1 mph - N/A Rain Light Rain
4:15 AM 55.4 °F 53.6 °F 94% 30.16 in 10.0 mi NNW 10.4 mph - N/A   Light Drizzle
4:35 AM 55.4 °F 51.8 °F 88% 30.15 in 10.0 mi NNW 9.2 mph - N/A   Scattered Clouds
4:55 AM 55.4 °F 51.8 °F 88% 30.15 in 10.0 mi NNW 6.9 mph - N/A   Clear
5:15 AM 57.2 °F 51.8 °F 82% 30.17 in 10.0 mi North 8.1 mph - N/A   Scattered Clouds
5:35 AM 55.4 °F 51.8 °F 88% 30.16 in 10.0 mi NNW 8.1 mph - N/A   Mostly Cloudy
5:55 AM 55.4 °F 51.8 °F 88% 30.17 in 10.0 mi NNW 8.1 mph - N/A   Overcast
6:15 AM 55.4 °F 51.8 °F 88% 30.17 in 10.0 mi NNW 11.5 mph 17.3 mph N/A   Overcast
6:35 AM 55.4 °F 53.6 °F 94% 30.16 in 10.0 mi NNW 11.5 mph - N/A Rain Light Rain
6:55 AM 55.4 °F 55.4 °F 100% 30.15 in 10.0 mi North 11.5 mph 18.4 mph 0.01 in Rain Light Rain
7:15 AM - - N/A% 30.15 in 10.0 mi NNW 10.4 mph 18.4 mph N/A Rain Light Rain
7:35 AM - - N/A% 30.16 in 10.0 mi North 8.1 mph 17.3 mph N/A Rain Light Rain
7:55 AM - - N/A% 30.16 in 10.0 mi NNW 9.2 mph - N/A Rain Light Rain
8:15 AM - - N/A% 30.17 in 10.0 mi NW 9.2 mph - 0.01 in Rain Light Rain
8:35 AM - - N/A% 30.17 in 10.0 mi NW 11.5 mph - 0.02 in Rain Rain
8:55 AM - - N/A% 30.17 in 10.0 mi NNW 10.4 mph - 0.03 in Rain Light Rain
9:15 AM - - N/A% 30.18 in 10.0 mi NW 11.5 mph - 0.01 in Rain Light Rain
9:35 AM - - N/A% 30.19 in 10.0 mi WNW 11.5 mph - 0.02 in Rain Light Rain
9:55 AM - - N/A% 30.19 in 10.0 mi NW 13.8 mph 17.3 mph 0.02 in Rain Light Rain
10:15 AM - - N/A% 30.18 in 7.0 mi NW 16.1 mph - 0.02 in Rain Rain
10:35 AM - - N/A% 30.18 in 7.0 mi NNW 12.7 mph - 0.03 in Rain Rain
10:55 AM - - N/A% 30.17 in 7.0 mi NW 13.8 mph - 0.06 in Rain Rain
11:15 AM - - N/A% 30.17 in 7.0 mi NNW 12.7 mph 23.0 mph 0.02 in Rain Rain
11:35 AM - - N/A% 30.17 in 3.0 mi NNW 10.4 mph 19.6 mph 0.05 in Rain Rain
11:55 AM - - N/A% 30.16 in 7.0 mi NNW 11.5 mph - 0.07 in Rain Rain
12:15 PM - - N/A% 30.16 in 7.0 mi NNW 11.5 mph 20.7 mph 0.01 in Rain Rain
12:35 PM - - N/A% 30.16 in 10.0 mi NNW 12.7 mph 19.6 mph 0.02 in Rain Light Rain
12:55 PM - - N/A% 30.16 in 10.0 mi NNW 11.5 mph 20.7 mph 0.03 in Rain Light Rain
1:15 PM - - N/A% 30.16 in 10.0 mi NNW 12.7 mph - 0.01 in Rain Light Rain
1:35 PM - - N/A% 30.15 in 10.0 mi NNW 11.5 mph 19.6 mph 0.01 in Rain Light Rain
1:55 PM - - N/A% 30.15 in 10.0 mi NNW 12.7 mph 18.4 mph 0.01 in Rain Light Rain
2:15 PM - - N/A% 30.15 in 10.0 mi NNW 13.8 mph 24.2 mph N/A Rain Rain
2:35 PM - - N/A% 30.14 in 10.0 mi NNW 11.5 mph 18.4 mph N/A Rain Light Rain
2:55 PM - - N/A% 30.14 in 5.0 mi NNW 12.7 mph 19.6 mph 0.01 in Rain Rain
3:15 PM - - N/A% 30.14 in 5.0 mi NNW 15.0 mph 19.6 mph 0.01 in Rain Light Rain
3:35 PM - - N/A% 30.14 in 7.0 mi NNW 11.5 mph 19.6 mph 0.01 in Rain Heavy Rain
3:55 PM - - N/A% 30.14 in 5.0 mi NNW 13.8 mph 19.6 mph 0.01 in Rain Rain
4:15 PM - - N/A% 30.14 in 4.0 mi NNW 11.5 mph 23.0 mph 0.01 in Rain Rain
4:55 PM - - N/A% 30.13 in 4.0 mi NNW 13.8 mph 20.7 mph 0.02 in Rain Rain
5:15 PM - - N/A% 30.13 in 2.5 mi NNW 11.5 mph 18.4 mph 0.03 in Rain Heavy Rain
5:35 PM - - N/A% 30.13 in 4.0 mi NNW 15.0 mph 21.9 mph 0.09 in Rain Rain
5:55 PM - - N/A% 30.12 in 10.0 mi NNW 11.5 mph 24.2 mph 0.10 in Rain Light Rain
6:15 PM - - N/A% 30.12 in 10.0 mi NW 13.8 mph 21.9 mph N/A   Drizzle
6:35 PM - - N/A% 30.12 in 7.0 mi NNW 13.8 mph 24.2 mph N/A Rain Rain
6:46 PM - - N/A% 30.11 in 7.0 mi NNW 13.8 mph 20.7 mph 0.01 in Rain Rain
6:55 PM - - N/A% 30.11 in 7.0 mi NNW 12.7 mph 24.2 mph 0.02 in Rain Rain
7:15 PM - - N/A% 30.11 in 10.0 mi NNW 11.5 mph 17.3 mph N/A Rain Rain
7:55 PM - - N/A% 30.10 in 3.0 mi NNW 15.0 mph 21.9 mph 0.07 in Rain Light Rain
8:15 PM - - N/A% 30.10 in 7.0 mi NNW 15.0 mph 20.7 mph 0.01 in Rain Rain
8:35 PM - - N/A% 30.10 in 5.0 mi NNW 13.8 mph 24.2 mph 0.03 in Rain Rain
8:55 PM - - N/A% 30.10 in 5.0 mi NNW 13.8 mph 20.7 mph 0.11 in Rain Rain
9:15 PM - - N/A% 30.10 in 10.0 mi NW 11.5 mph 20.7 mph 0.01 in Rain Rain
9:35 PM - - N/A% 30.10 in 7.0 mi NNW 15.0 mph 19.6 mph 0.01 in Rain Light Rain
9:55 PM - - N/A% 30.10 in 10.0 mi NNW 12.7 mph 19.6 mph 0.01 in Rain Light Rain
10:15 PM - - N/A% 30.10 in 7.0 mi NW 12.7 mph - N/A   Light Drizzle
10:35 PM - - N/A% 30.10 in 7.0 mi NNW 13.8 mph 19.6 mph N/A   Drizzle
10:55 PM - - N/A% 30.09 in 5.0 mi NW 12.7 mph 23.0 mph N/A   Heavy Drizzle
11:15 PM - - N/A% 30.08 in 5.0 mi NW 15.0 mph 20.7 mph N/A Rain Rain
11:35 PM - - N/A% 30.08 in 7.0 mi NW 16.1 mph 21.9 mph N/A   Heavy Drizzle
11:55 PM - - N/A% 30.07 in 7.0 mi NNW 10.4 mph 17.3 mph 0.01 in   Drizzle